Year,Month,Day,Hour,Minute,Value (Times are PST for temperature in C)
2020,05,29,00,00,15.80
2020,05,29,00,01,15.80
2020,05,29,00,02,15.70
2020,05,29,00,03,15.70
2020,05,29,00,04,15.70
2020,05,29,00,05,15.70
2020,05,29,00,06,15.70
2020,05,29,00,07,15.70
2020,05,29,00,08,15.70
2020,05,29,00,09,15.70
2020,05,29,00,10,15.70
2020,05,29,00,11,15.70
2020,05,29,00,12,15.60
2020,05,29,00,13,15.60
2020,05,29,00,14,15.60
2020,05,29,00,15,15.60
2020,05,29,00,16,15.60
2020,05,29,00,17,15.60
2020,05,29,00,18,15.60
2020,05,29,00,19,15.50
2020,05,29,00,20,15.50
2020,05,29,00,21,15.50
2020,05,29,00,22,15.50
2020,05,29,00,23,15.40
2020,05,29,00,24,15.40
2020,05,29,00,25,15.40
2020,05,29,00,26,15.30
2020,05,29,00,27,15.30
2020,05,29,00,28,15.30
2020,05,29,00,29,15.30
2020,05,29,00,30,15.30
2020,05,29,00,31,15.20
2020,05,29,00,32,15.20
2020,05,29,00,33,15.20
2020,05,29,00,34,15.20
2020,05,29,00,35,15.20
2020,05,29,00,36,15.20
2020,05,29,00,37,15.10
2020,05,29,00,38,15.10
2020,05,29,00,39,15.10
2020,05,29,00,40,15.10
2020,05,29,00,41,15.10
2020,05,29,00,42,15.10
2020,05,29,00,43,15.10
2020,05,29,00,44,15.10
2020,05,29,00,45,15.00
2020,05,29,00,46,15.00
2020,05,29,00,47,15.00
2020,05,29,00,48,15.00
2020,05,29,00,49,15.00
2020,05,29,00,50,15.00
2020,05,29,00,51,15.00
2020,05,29,00,52,15.00
2020,05,29,00,53,15.00
2020,05,29,00,54,15.00
2020,05,29,00,55,15.00
2020,05,29,00,56,15.00
2020,05,29,00,57,15.00
2020,05,29,00,58,15.00
2020,05,29,00,59,14.90
2020,05,29,01,00,14.90
2020,05,29,01,01,14.90
2020,05,29,01,02,14.90
2020,05,29,01,03,14.90
2020,05,29,01,04,14.90
2020,05,29,01,05,14.90
2020,05,29,01,06,14.90
2020,05,29,01,07,14.90
2020,05,29,01,08,14.90
2020,05,29,01,09,14.90
2020,05,29,01,10,14.90
2020,05,29,01,11,14.90
2020,05,29,01,12,14.90
2020,05,29,01,13,14.80
2020,05,29,01,14,14.80
2020,05,29,01,15,14.80
2020,05,29,01,16,14.80
2020,05,29,01,17,14.80
2020,05,29,01,18,14.80
2020,05,29,01,19,14.80
2020,05,29,01,20,14.80
2020,05,29,01,21,14.80
2020,05,29,01,22,14.70
2020,05,29,01,23,14.70
2020,05,29,01,24,14.70
2020,05,29,01,25,14.70
2020,05,29,01,26,14.70
2020,05,29,01,27,14.70
2020,05,29,01,28,14.70
2020,05,29,01,29,14.60
2020,05,29,01,30,14.60
2020,05,29,01,31,14.60
2020,05,29,01,32,14.60
2020,05,29,01,33,14.60
2020,05,29,01,34,14.60
2020,05,29,01,35,14.70
2020,05,29,01,36,14.70
2020,05,29,01,37,14.70
2020,05,29,01,38,14.70
2020,05,29,01,39,14.70
2020,05,29,01,40,14.70
2020,05,29,01,41,14.70
2020,05,29,01,42,14.70
2020,05,29,01,43,14.80
2020,05,29,01,44,14.80
2020,05,29,01,45,14.80
2020,05,29,01,46,14.80
2020,05,29,01,47,14.80
2020,05,29,01,48,14.70
2020,05,29,01,49,14.70
2020,05,29,01,50,14.70
2020,05,29,01,51,14.60
2020,05,29,01,52,14.60
2020,05,29,01,53,14.60
2020,05,29,01,54,14.50
2020,05,29,01,55,14.50
2020,05,29,01,56,14.40
2020,05,29,01,57,14.40
2020,05,29,01,58,14.40
2020,05,29,01,59,14.40
2020,05,29,02,00,14.30
2020,05,29,02,01,14.30
2020,05,29,02,02,14.30
2020,05,29,02,03,14.30
2020,05,29,02,04,14.30
2020,05,29,02,05,14.20
2020,05,29,02,06,14.20
2020,05,29,02,07,14.20
2020,05,29,02,08,14.20
2020,05,29,02,09,14.20
2020,05,29,02,10,14.20
2020,05,29,02,11,14.20
2020,05,29,02,12,14.20
2020,05,29,02,13,14.20
2020,05,29,02,14,14.20
2020,05,29,02,15,14.20
2020,05,29,02,16,14.20
2020,05,29,02,17,14.20
2020,05,29,02,18,14.20
2020,05,29,02,19,14.20
2020,05,29,02,20,14.20
2020,05,29,02,21,14.20
2020,05,29,02,22,14.20
2020,05,29,02,23,14.20
2020,05,29,02,24,14.20
2020,05,29,02,25,14.20
2020,05,29,02,26,14.20
2020,05,29,02,27,14.20
2020,05,29,02,28,14.20
2020,05,29,02,29,14.20
2020,05,29,02,30,14.10
2020,05,29,02,31,14.10
2020,05,29,02,32,14.10
2020,05,29,02,33,14.10
2020,05,29,02,34,14.00
2020,05,29,02,35,14.00
2020,05,29,02,36,14.00
2020,05,29,02,37,13.90
2020,05,29,02,38,13.90
2020,05,29,02,39,13.90
2020,05,29,02,40,13.90
2020,05,29,02,41,13.90
2020,05,29,02,42,13.90
2020,05,29,02,43,13.90
2020,05,29,02,44,13.90
2020,05,29,02,45,13.90
2020,05,29,02,46,13.90
2020,05,29,02,47,13.90
2020,05,29,02,48,13.90
2020,05,29,02,49,13.90
2020,05,29,02,50,13.90
2020,05,29,02,51,13.80
2020,05,29,02,52,13.80
2020,05,29,02,53,13.80
2020,05,29,02,54,13.80
2020,05,29,02,55,13.80
2020,05,29,02,56,13.80
2020,05,29,02,57,13.80
2020,05,29,02,58,13.80
2020,05,29,02,59,13.80
2020,05,29,03,00,13.80
2020,05,29,03,01,13.80
2020,05,29,03,02,13.80
2020,05,29,03,03,13.70
2020,05,29,03,04,13.80
2020,05,29,03,05,13.70
2020,05,29,03,06,13.70
2020,05,29,03,07,13.70
2020,05,29,03,08,13.70
2020,05,29,03,09,13.70
2020,05,29,03,10,13.70
2020,05,29,03,11,13.70
2020,05,29,03,12,13.70
2020,05,29,03,13,13.70
2020,05,29,03,14,13.70
2020,05,29,03,15,13.70
2020,05,29,03,16,13.70
2020,05,29,03,17,13.70
2020,05,29,03,18,13.70
2020,05,29,03,19,13.70
2020,05,29,03,20,13.70
2020,05,29,03,21,13.70
2020,05,29,03,22,13.70
2020,05,29,03,23,13.60
2020,05,29,03,24,13.60
2020,05,29,03,25,13.60
2020,05,29,03,26,13.60
2020,05,29,03,27,13.60
2020,05,29,03,28,13.60
2020,05,29,03,29,13.60
2020,05,29,03,30,13.50
2020,05,29,03,31,13.50
2020,05,29,03,32,13.50
2020,05,29,03,33,13.50
2020,05,29,03,34,13.40
2020,05,29,03,35,13.40
2020,05,29,03,36,13.40
2020,05,29,03,37,13.40
2020,05,29,03,38,13.40
2020,05,29,03,39,13.30
2020,05,29,03,40,13.30
2020,05,29,03,41,13.30
2020,05,29,03,42,13.30
2020,05,29,03,43,13.30
2020,05,29,03,44,13.30
2020,05,29,03,45,13.30
2020,05,29,03,46,13.20
2020,05,29,03,47,13.20
2020,05,29,03,48,13.20
2020,05,29,03,49,13.20
2020,05,29,03,50,13.10
2020,05,29,03,51,13.10
2020,05,29,03,52,13.10
2020,05,29,03,53,13.10
2020,05,29,03,54,13.10
2020,05,29,03,55,13.10
2020,05,29,03,56,13.10
2020,05,29,03,57,13.10
2020,05,29,03,58,13.10
2020,05,29,03,59,13.00
2020,05,29,04,00,13.00
2020,05,29,04,01,13.00
2020,05,29,04,02,13.00
2020,05,29,04,03,12.90
2020,05,29,04,04,12.90
2020,05,29,04,05,12.90
2020,05,29,04,06,12.90
2020,05,29,04,07,12.90
2020,05,29,04,08,12.90
2020,05,29,04,09,12.80
2020,05,29,04,10,12.80
2020,05,29,04,11,12.80
2020,05,29,04,12,12.80
2020,05,29,04,13,12.80
2020,05,29,04,14,12.80
2020,05,29,04,15,12.70
2020,05,29,04,16,12.70
2020,05,29,04,17,12.70
2020,05,29,04,18,12.70
2020,05,29,04,19,12.70
2020,05,29,04,20,12.60
2020,05,29,04,21,12.60
2020,05,29,04,22,12.60
2020,05,29,04,23,12.60
2020,05,29,04,24,12.60
2020,05,29,04,25,12.60
2020,05,29,04,26,12.50
2020,05,29,04,27,12.50
2020,05,29,04,28,12.50
2020,05,29,04,29,12.50
2020,05,29,04,30,12.40
2020,05,29,04,31,12.40
2020,05,29,04,32,12.40
2020,05,29,04,33,12.40
2020,05,29,04,34,12.40
2020,05,29,04,35,12.30
2020,05,29,04,36,12.30
2020,05,29,04,37,12.30
2020,05,29,04,38,12.30
2020,05,29,04,39,12.30
2020,05,29,04,40,12.30
2020,05,29,04,41,12.30
2020,05,29,04,42,12.30
2020,05,29,04,43,12.20
2020,05,29,04,44,12.20
2020,05,29,04,45,12.20
2020,05,29,04,46,12.20
2020,05,29,04,47,12.10
2020,05,29,04,48,12.10
2020,05,29,04,49,12.10
2020,05,29,04,50,12.10
2020,05,29,04,51,12.10
2020,05,29,04,52,12.10
2020,05,29,04,53,12.10
2020,05,29,04,54,12.00
2020,05,29,04,55,12.00
2020,05,29,04,56,12.00
2020,05,29,04,57,12.00
2020,05,29,04,58,11.90
2020,05,29,04,59,11.90
2020,05,29,05,00,11.90
2020,05,29,05,01,11.90
2020,05,29,05,02,11.90
2020,05,29,05,03,11.90
2020,05,29,05,04,11.90
2020,05,29,05,05,11.90
2020,05,29,05,06,11.90
2020,05,29,05,07,11.90
2020,05,29,05,08,11.80
2020,05,29,05,09,11.80
2020,05,29,05,10,11.80
2020,05,29,05,11,11.80
2020,05,29,05,12,11.80
2020,05,29,05,13,11.80
2020,05,29,05,14,11.80
2020,05,29,05,15,11.80
2020,05,29,05,16,11.80
2020,05,29,05,17,11.80
2020,05,29,05,18,11.80
2020,05,29,05,19,11.80
2020,05,29,05,20,11.80
2020,05,29,05,21,11.80
2020,05,29,05,22,11.80
2020,05,29,05,23,11.80
2020,05,29,05,24,11.80
2020,05,29,05,25,11.80
2020,05,29,05,26,11.80
2020,05,29,05,27,11.80
2020,05,29,05,28,11.80
2020,05,29,05,29,11.80
2020,05,29,05,30,11.80
2020,05,29,05,31,11.80
2020,05,29,05,32,11.80
2020,05,29,05,33,11.80
2020,05,29,05,34,11.80
2020,05,29,05,35,11.80
2020,05,29,05,36,11.80
2020,05,29,05,37,11.80
2020,05,29,05,38,11.80
2020,05,29,05,39,11.80
2020,05,29,05,40,11.80
2020,05,29,05,41,11.80
2020,05,29,05,42,11.80
2020,05,29,05,43,11.80
2020,05,29,05,44,11.80
2020,05,29,05,45,11.80
2020,05,29,05,46,11.80
2020,05,29,05,47,11.80
2020,05,29,05,48,11.80
2020,05,29,05,49,11.80
2020,05,29,05,50,11.90
2020,05,29,05,51,11.80
2020,05,29,05,52,11.80
2020,05,29,05,53,11.80
2020,05,29,05,54,11.80
2020,05,29,05,55,11.80
2020,05,29,05,56,11.80
2020,05,29,05,57,11.80
2020,05,29,05,58,11.80
2020,05,29,05,59,11.80
2020,05,29,06,00,11.80
2020,05,29,06,01,11.80
2020,05,29,06,02,11.80
2020,05,29,06,03,11.80
2020,05,29,06,04,11.80
2020,05,29,06,05,11.90
2020,05,29,06,06,11.90
2020,05,29,06,07,11.90
2020,05,29,06,08,11.90
2020,05,29,06,09,12.00
2020,05,29,06,10,12.00
2020,05,29,06,11,12.00
2020,05,29,06,12,12.10
2020,05,29,06,13,12.10
2020,05,29,06,14,12.10
2020,05,29,06,15,12.20
2020,05,29,06,16,12.20
2020,05,29,06,17,12.30
2020,05,29,06,18,12.30
2020,05,29,06,19,12.40
2020,05,29,06,20,12.40
2020,05,29,06,21,12.40
2020,05,29,06,22,12.40
2020,05,29,06,23,12.50
2020,05,29,06,24,12.50
2020,05,29,06,25,12.60
2020,05,29,06,26,12.60
2020,05,29,06,27,12.60
2020,05,29,06,28,12.60
2020,05,29,06,29,12.60
2020,05,29,06,30,12.70
2020,05,29,06,31,12.70
2020,05,29,06,32,12.70
2020,05,29,06,33,12.70
2020,05,29,06,34,12.70
2020,05,29,06,35,12.70
2020,05,29,06,36,12.70
2020,05,29,06,37,12.70
2020,05,29,06,38,12.70
2020,05,29,06,39,12.70
2020,05,29,06,40,12.70
2020,05,29,06,41,12.70
2020,05,29,06,42,12.70
2020,05,29,06,43,12.80
2020,05,29,06,44,12.80
2020,05,29,06,45,12.80
2020,05,29,06,46,12.80
2020,05,29,06,47,12.80
2020,05,29,06,48,12.90
2020,05,29,06,49,12.90
2020,05,29,06,50,12.90
2020,05,29,06,51,13.00
2020,05,29,06,52,13.00
2020,05,29,06,53,13.00
2020,05,29,06,54,13.10
2020,05,29,06,55,13.10
2020,05,29,06,56,13.10
2020,05,29,06,57,13.10
2020,05,29,06,58,13.20
2020,05,29,06,59,13.20
2020,05,29,07,00,13.20
2020,05,29,07,01,13.20
2020,05,29,07,02,13.30
2020,05,29,07,03,13.30
2020,05,29,07,04,13.30
2020,05,29,07,05,13.30
2020,05,29,07,06,13.40
2020,05,29,07,07,13.40
2020,05,29,07,08,13.40
2020,05,29,07,09,13.40
2020,05,29,07,10,13.50
2020,05,29,07,11,13.50
2020,05,29,07,12,13.60
2020,05,29,07,13,13.60
2020,05,29,07,14,13.60
2020,05,29,07,15,13.70
2020,05,29,07,16,13.70
2020,05,29,07,17,13.70
2020,05,29,07,18,13.70
2020,05,29,07,19,13.70
2020,05,29,07,20,13.70
2020,05,29,07,21,13.70
2020,05,29,07,22,13.80
2020,05,29,07,23,13.80
2020,05,29,07,24,13.80
2020,05,29,07,25,13.80
2020,05,29,07,26,13.80
2020,05,29,07,27,13.80
2020,05,29,07,28,13.80
2020,05,29,07,29,13.80
2020,05,29,07,30,13.90
2020,05,29,07,31,13.90
2020,05,29,07,32,13.90
2020,05,29,07,33,13.90
2020,05,29,07,34,13.90
2020,05,29,07,35,14.00
2020,05,29,07,36,14.00
2020,05,29,07,37,14.00
2020,05,29,07,38,14.10
2020,05,29,07,39,14.10
2020,05,29,07,40,14.10
2020,05,29,07,41,14.20
2020,05,29,07,42,14.20
2020,05,29,07,43,14.20
2020,05,29,07,44,14.20
2020,05,29,07,45,14.30
2020,05,29,07,46,14.30
2020,05,29,07,47,14.30
2020,05,29,07,48,14.30
2020,05,29,07,49,14.30
2020,05,29,07,50,14.30
2020,05,29,07,51,14.30
2020,05,29,07,52,14.30
2020,05,29,07,53,14.30
2020,05,29,07,54,14.30
2020,05,29,07,55,14.30
2020,05,29,07,56,14.30
2020,05,29,07,57,14.30
2020,05,29,07,58,14.30
2020,05,29,07,59,14.30
2020,05,29,08,00,14.40
2020,05,29,08,01,14.40
2020,05,29,08,02,14.40
2020,05,29,08,03,14.40
2020,05,29,08,04,14.40
2020,05,29,08,05,14.50
2020,05,29,08,06,14.50
2020,05,29,08,07,14.60
2020,05,29,08,08,14.60
2020,05,29,08,09,14.60
2020,05,29,08,10,14.60
2020,05,29,08,11,14.60
2020,05,29,08,12,14.70
2020,05,29,08,13,14.70
2020,05,29,08,14,14.70
2020,05,29,08,15,14.80
2020,05,29,08,16,14.80
2020,05,29,08,17,14.80
2020,05,29,08,18,14.90
2020,05,29,08,19,14.90
2020,05,29,08,20,15.00
2020,05,29,08,21,15.00
2020,05,29,08,22,15.10
2020,05,29,08,23,15.10
2020,05,29,08,24,15.20
2020,05,29,08,25,15.20
2020,05,29,08,26,15.20
2020,05,29,08,27,15.20
2020,05,29,08,28,15.30
2020,05,29,08,29,15.30
2020,05,29,08,30,15.30
2020,05,29,08,31,15.30
2020,05,29,08,32,15.30
2020,05,29,08,33,15.30
2020,05,29,08,34,15.30
2020,05,29,08,35,15.30
2020,05,29,08,36,15.30
2020,05,29,08,37,15.30
2020,05,29,08,38,15.30
2020,05,29,08,39,15.30
2020,05,29,08,40,15.40
2020,05,29,08,41,15.40
2020,05,29,08,42,15.40
2020,05,29,08,43,15.50
2020,05,29,08,44,15.50
2020,05,29,08,45,15.60
2020,05,29,08,46,15.60
2020,05,29,08,47,15.60
2020,05,29,08,48,15.60
2020,05,29,08,49,15.60
2020,05,29,08,50,15.60
2020,05,29,08,51,15.70
2020,05,29,08,52,15.70
2020,05,29,08,53,15.70
2020,05,29,08,54,15.70
2020,05,29,08,55,15.80
2020,05,29,08,56,15.80
2020,05,29,08,57,15.80
2020,05,29,08,58,15.90
2020,05,29,08,59,15.90
2020,05,29,09,00,16.00
2020,05,29,09,01,16.00
2020,05,29,09,02,16.10
2020,05,29,09,03,16.10
2020,05,29,09,04,16.10
2020,05,29,09,05,16.20
2020,05,29,09,06,16.30
2020,05,29,09,07,16.30
2020,05,29,09,08,16.30
2020,05,29,09,09,16.30
2020,05,29,09,10,16.40
2020,05,29,09,11,16.40
2020,05,29,09,12,16.40
2020,05,29,09,13,16.50
2020,05,29,09,14,16.50
2020,05,29,09,15,16.60
2020,05,29,09,16,16.70
2020,05,29,09,17,16.70
2020,05,29,09,18,16.80
2020,05,29,09,19,16.80
2020,05,29,09,20,16.90
2020,05,29,09,21,16.90
2020,05,29,09,22,17.00
2020,05,29,09,23,17.10
2020,05,29,09,24,17.10
2020,05,29,09,25,17.20
2020,05,29,09,26,17.20
2020,05,29,09,27,17.30
2020,05,29,09,28,17.30
2020,05,29,09,29,17.40
2020,05,29,09,30,17.50
2020,05,29,09,31,17.50
2020,05,29,09,32,17.60
2020,05,29,09,33,17.70
2020,05,29,09,34,17.80
2020,05,29,09,35,17.80
2020,05,29,09,36,17.90
2020,05,29,09,37,17.90
2020,05,29,09,38,18.00
2020,05,29,09,39,18.00
2020,05,29,09,40,18.10
2020,05,29,09,41,18.20
2020,05,29,09,42,18.20
2020,05,29,09,43,18.30
2020,05,29,09,44,18.30
2020,05,29,09,45,18.40
2020,05,29,09,46,18.40
2020,05,29,09,47,18.40
2020,05,29,09,48,18.40
2020,05,29,09,49,18.40
2020,05,29,09,50,18.40
2020,05,29,09,51,18.40
2020,05,29,09,52,18.40
2020,05,29,09,53,18.40
2020,05,29,09,54,18.40
2020,05,29,09,55,18.50
2020,05,29,09,56,18.40
2020,05,29,09,57,18.40
2020,05,29,09,58,18.50
2020,05,29,09,59,18.60
2020,05,29,10,00,18.70
2020,05,29,10,01,18.70
2020,05,29,10,02,18.80
2020,05,29,10,03,18.80
2020,05,29,10,04,18.80
2020,05,29,10,05,18.80
2020,05,29,10,06,18.80
2020,05,29,10,07,18.80
2020,05,29,10,08,18.80
2020,05,29,10,09,18.90
2020,05,29,10,10,18.90
2020,05,29,10,11,19.00
2020,05,29,10,12,19.00
2020,05,29,10,13,19.10
2020,05,29,10,14,19.10
2020,05,29,10,15,19.10
2020,05,29,10,16,19.20
2020,05,29,10,17,19.30
2020,05,29,10,18,19.40
2020,05,29,10,19,19.50
2020,05,29,10,20,19.60
2020,05,29,10,21,19.70
2020,05,29,10,22,19.80
2020,05,29,10,23,19.80
2020,05,29,10,24,19.80
2020,05,29,10,25,19.80
2020,05,29,10,26,19.80
2020,05,29,10,27,19.90
2020,05,29,10,28,19.90
2020,05,29,10,29,19.90
2020,05,29,10,30,20.00
2020,05,29,10,31,20.00
2020,05,29,10,32,20.10
2020,05,29,10,33,20.10
2020,05,29,10,34,20.20
2020,05,29,10,35,20.30
2020,05,29,10,36,20.30
2020,05,29,10,37,20.30
2020,05,29,10,38,20.30
2020,05,29,10,39,20.30
2020,05,29,10,40,20.20
2020,05,29,10,41,20.20
2020,05,29,10,42,20.20
2020,05,29,10,43,20.20
2020,05,29,10,44,20.20
2020,05,29,10,45,20.30
2020,05,29,10,46,20.40
2020,05,29,10,47,20.40
2020,05,29,10,48,20.50
2020,05,29,10,49,20.60
2020,05,29,10,50,20.60
2020,05,29,10,51,20.60
2020,05,29,10,52,20.60
2020,05,29,10,53,20.60
2020,05,29,10,54,20.70
2020,05,29,10,55,20.70
2020,05,29,10,56,20.80
2020,05,29,10,57,20.70
2020,05,29,10,58,20.70
2020,05,29,10,59,20.70
2020,05,29,11,00,20.60
2020,05,29,11,01,20.60
2020,05,29,11,02,20.50
2020,05,29,11,03,20.50
2020,05,29,11,04,20.50
2020,05,29,11,05,20.50
2020,05,29,11,06,20.50
2020,05,29,11,07,20.60
2020,05,29,11,08,20.60
2020,05,29,11,09,20.70
2020,05,29,11,10,20.80
2020,05,29,11,11,20.80
2020,05,29,11,12,20.90
2020,05,29,11,13,20.90
2020,05,29,11,14,21.00
2020,05,29,11,15,21.10
2020,05,29,11,16,21.10
2020,05,29,11,17,21.10
2020,05,29,11,18,21.10
2020,05,29,11,19,21.10
2020,05,29,11,20,21.10
2020,05,29,11,21,21.10
2020,05,29,11,22,21.10
2020,05,29,11,23,21.20
2020,05,29,11,24,21.20
2020,05,29,11,25,21.20
2020,05,29,11,26,21.20
2020,05,29,11,27,21.20
2020,05,29,11,28,21.20
2020,05,29,11,29,21.20
2020,05,29,11,30,21.20
2020,05,29,11,31,21.30
2020,05,29,11,32,21.30
2020,05,29,11,33,21.40
2020,05,29,11,34,21.40
2020,05,29,11,35,21.40
2020,05,29,11,36,21.30
2020,05,29,11,37,21.30
2020,05,29,11,38,21.30
2020,05,29,11,39,21.30
2020,05,29,11,40,21.20
2020,05,29,11,41,21.10
2020,05,29,11,42,21.00
2020,05,29,11,43,20.90
2020,05,29,11,44,20.90
2020,05,29,11,45,20.90
2020,05,29,11,46,20.90
2020,05,29,11,47,20.90
2020,05,29,11,48,20.90
2020,05,29,11,49,20.90
2020,05,29,11,50,20.90
2020,05,29,11,51,20.90
2020,05,29,11,52,20.90
2020,05,29,11,53,20.90
2020,05,29,11,54,20.90
2020,05,29,11,55,21.00
2020,05,29,11,56,20.90
2020,05,29,11,57,20.90
2020,05,29,11,58,20.90
2020,05,29,11,59,20.90
2020,05,29,12,00,20.90
2020,05,29,12,01,20.80
2020,05,29,12,02,20.70
2020,05,29,12,03,20.70
2020,05,29,12,04,20.50
2020,05,29,12,05,20.50
2020,05,29,12,06,20.40
2020,05,29,12,07,20.40
2020,05,29,12,08,20.40
2020,05,29,12,09,20.40
2020,05,29,12,10,20.50
2020,05,29,12,11,20.60
2020,05,29,12,12,20.50
2020,05,29,12,13,20.50
2020,05,29,12,14,20.50
2020,05,29,12,15,20.60
2020,05,29,12,16,20.60
2020,05,29,12,17,20.60
2020,05,29,12,18,20.60
2020,05,29,12,19,20.60
2020,05,29,12,20,20.70
2020,05,29,12,21,20.70
2020,05,29,12,22,20.70
2020,05,29,12,23,20.80
2020,05,29,12,24,20.80
2020,05,29,12,25,20.80
2020,05,29,12,26,20.80
2020,05,29,12,27,20.80
2020,05,29,12,28,20.80
2020,05,29,12,29,20.80
2020,05,29,12,30,20.80
2020,05,29,12,31,20.70
2020,05,29,12,32,20.70
2020,05,29,12,33,20.60
2020,05,29,12,34,20.60
2020,05,29,12,35,20.50
2020,05,29,12,36,20.50
2020,05,29,12,37,20.50
2020,05,29,12,38,20.40
2020,05,29,12,39,20.40
2020,05,29,12,40,20.30
2020,05,29,12,41,20.30
2020,05,29,12,42,20.40
2020,05,29,12,43,20.50
2020,05,29,12,44,20.50
2020,05,29,12,45,20.60
2020,05,29,12,46,20.60
2020,05,29,12,47,20.60
2020,05,29,12,48,20.60
2020,05,29,12,49,20.60
2020,05,29,12,50,20.70
2020,05,29,12,51,20.70
2020,05,29,12,52,20.70
2020,05,29,12,53,20.80
2020,05,29,12,54,20.80
2020,05,29,12,55,20.80
2020,05,29,12,56,20.80
2020,05,29,12,57,20.80
2020,05,29,12,58,20.80
2020,05,29,12,59,20.90
2020,05,29,13,00,21.00
2020,05,29,13,01,21.00
2020,05,29,13,02,21.00
2020,05,29,13,03,21.10
2020,05,29,13,04,21.10
2020,05,29,13,05,21.30
2020,05,29,13,06,21.40
2020,05,29,13,07,21.50
2020,05,29,13,08,21.60
2020,05,29,13,09,21.60
2020,05,29,13,10,21.60
2020,05,29,13,11,21.50
2020,05,29,13,12,21.50
2020,05,29,13,13,21.40
2020,05,29,13,14,21.30
2020,05,29,13,15,21.20
2020,05,29,13,16,21.20
2020,05,29,13,17,21.20
2020,05,29,13,18,21.20
2020,05,29,13,19,21.10
2020,05,29,13,20,21.20
2020,05,29,13,21,21.30
2020,05,29,13,22,21.30
2020,05,29,13,23,21.40
2020,05,29,13,24,21.40
2020,05,29,13,25,21.40
2020,05,29,13,26,21.40
2020,05,29,13,27,21.40
2020,05,29,13,28,21.50
2020,05,29,13,29,21.50
2020,05,29,13,30,21.60
2020,05,29,13,31,21.80
2020,05,29,13,32,21.80
2020,05,29,13,33,21.90
2020,05,29,13,34,22.00
2020,05,29,13,35,22.00
2020,05,29,13,36,22.10
2020,05,29,13,37,22.20
2020,05,29,13,38,22.20
2020,05,29,13,39,22.30
2020,05,29,13,40,22.30
2020,05,29,13,41,22.20
2020,05,29,13,42,22.20
2020,05,29,13,43,22.20
2020,05,29,13,44,22.20
2020,05,29,13,45,22.20
2020,05,29,13,46,22.20
2020,05,29,13,47,22.20
2020,05,29,13,48,22.30
2020,05,29,13,49,22.30
2020,05,29,13,50,22.40
2020,05,29,13,51,22.40
2020,05,29,13,52,22.40
2020,05,29,13,53,22.40
2020,05,29,13,54,22.40
2020,05,29,13,55,22.40
2020,05,29,13,56,22.40
2020,05,29,13,57,22.40
2020,05,29,13,58,22.40
2020,05,29,13,59,22.50
2020,05,29,14,00,22.50
2020,05,29,14,01,22.60
2020,05,29,14,02,22.70
2020,05,29,14,03,22.80
2020,05,29,14,04,22.80
2020,05,29,14,05,22.80
2020,05,29,14,06,22.80
2020,05,29,14,07,22.80
2020,05,29,14,08,22.80
2020,05,29,14,09,22.80
2020,05,29,14,10,22.70
2020,05,29,14,11,22.60
2020,05,29,14,12,22.50
2020,05,29,14,13,22.30
2020,05,29,14,14,22.20
2020,05,29,14,15,22.10
2020,05,29,14,16,22.10
2020,05,29,14,17,22.10
2020,05,29,14,18,22.10
2020,05,29,14,19,22.20
2020,05,29,14,20,22.30
2020,05,29,14,21,22.40
2020,05,29,14,22,22.60
2020,05,29,14,23,22.70
2020,05,29,14,24,22.70
2020,05,29,14,25,22.70
2020,05,29,14,26,22.80
2020,05,29,14,27,22.80
2020,05,29,14,28,22.90
2020,05,29,14,29,22.90
2020,05,29,14,30,22.90
2020,05,29,14,31,22.90
2020,05,29,14,32,22.90
2020,05,29,14,33,22.90
2020,05,29,14,34,22.80
2020,05,29,14,35,22.80
2020,05,29,14,36,22.80
2020,05,29,14,37,22.80
2020,05,29,14,38,22.80
2020,05,29,14,39,22.80
2020,05,29,14,40,22.80
2020,05,29,14,41,22.70
2020,05,29,14,42,22.70
2020,05,29,14,43,22.70
2020,05,29,14,44,22.70
2020,05,29,14,45,22.70
2020,05,29,14,46,22.80
2020,05,29,14,47,22.80
2020,05,29,14,48,22.80
2020,05,29,14,49,22.90
2020,05,29,14,50,22.90
2020,05,29,14,51,22.90
2020,05,29,14,52,23.00
2020,05,29,14,53,23.00
2020,05,29,14,54,22.90
2020,05,29,14,55,23.00
2020,05,29,14,56,22.90
2020,05,29,14,57,22.90
2020,05,29,14,58,22.90
2020,05,29,14,59,22.90
2020,05,29,15,00,23.00
2020,05,29,15,01,23.00
2020,05,29,15,02,23.10
2020,05,29,15,03,23.20
2020,05,29,15,04,23.30
2020,05,29,15,05,23.40
2020,05,29,15,06,23.50
2020,05,29,15,07,23.50
2020,05,29,15,08,23.50
2020,05,29,15,09,23.50
2020,05,29,15,10,23.50
2020,05,29,15,11,23.50
2020,05,29,15,12,23.60
2020,05,29,15,13,23.60
2020,05,29,15,14,23.70
2020,05,29,15,15,23.80
2020,05,29,15,16,23.90
2020,05,29,15,17,23.90
2020,05,29,15,18,24.00
2020,05,29,15,19,23.90
2020,05,29,15,20,23.80
2020,05,29,15,21,23.80
2020,05,29,15,22,23.80
2020,05,29,15,23,23.80
2020,05,29,15,24,23.90
2020,05,29,15,25,23.90
2020,05,29,15,26,23.90
2020,05,29,15,27,23.90
2020,05,29,15,28,23.90
2020,05,29,15,29,23.90
2020,05,29,15,30,23.90
2020,05,29,15,31,23.90
2020,05,29,15,32,23.90
2020,05,29,15,33,23.90
2020,05,29,15,34,24.00
2020,05,29,15,35,24.00
2020,05,29,15,36,24.20
2020,05,29,15,37,24.30
2020,05,29,15,38,24.30
2020,05,29,15,39,24.30
2020,05,29,15,40,24.30
2020,05,29,15,41,24.20
2020,05,29,15,42,24.20
2020,05,29,15,43,24.10
2020,05,29,15,44,24.10
2020,05,29,15,45,24.00
2020,05,29,15,46,24.00
2020,05,29,15,47,23.90
2020,05,29,15,48,23.90
2020,05,29,15,49,23.80
2020,05,29,15,50,23.70
2020,05,29,15,51,23.70
2020,05,29,15,52,23.70
2020,05,29,15,53,23.80
2020,05,29,15,54,23.80
2020,05,29,15,55,23.90
2020,05,29,15,56,24.10
2020,05,29,15,57,24.20
2020,05,29,15,58,24.20
2020,05,29,15,59,24.20
2020,05,29,16,00,24.10
2020,05,29,16,01,24.00
2020,05,29,16,02,23.90
2020,05,29,16,03,23.80
2020,05,29,16,04,23.80
2020,05,29,16,05,23.80
2020,05,29,16,06,23.80
2020,05,29,16,07,23.80
2020,05,29,16,08,23.80
2020,05,29,16,09,23.90
2020,05,29,16,10,24.00
2020,05,29,16,11,24.00
2020,05,29,16,12,24.10
2020,05,29,16,13,24.20
2020,05,29,16,14,24.30
2020,05,29,16,15,24.30
2020,05,29,16,16,24.40
2020,05,29,16,17,24.50
2020,05,29,16,18,24.50
2020,05,29,16,19,24.50
2020,05,29,16,20,24.50
2020,05,29,16,21,24.30
2020,05,29,16,22,24.20
2020,05,29,16,23,24.10
2020,05,29,16,24,24.20
2020,05,29,16,25,24.30
2020,05,29,16,26,24.40
2020,05,29,16,27,24.40
2020,05,29,16,28,24.30
2020,05,29,16,29,24.30
2020,05,29,16,30,24.30
2020,05,29,16,31,24.20
2020,05,29,16,32,24.20
2020,05,29,16,33,24.20
2020,05,29,16,34,24.30
2020,05,29,16,35,24.20
2020,05,29,16,36,24.20
2020,05,29,16,37,24.20
2020,05,29,16,38,24.20
2020,05,29,16,39,24.20
2020,05,29,16,40,24.30
2020,05,29,16,41,24.30
2020,05,29,16,42,24.40
2020,05,29,16,43,24.40
2020,05,29,16,44,24.40
2020,05,29,16,45,24.40
2020,05,29,16,46,24.50
2020,05,29,16,47,24.60
2020,05,29,16,48,24.70
2020,05,29,16,49,24.80
2020,05,29,16,50,24.80
2020,05,29,16,51,24.90
2020,05,29,16,52,24.90
2020,05,29,16,53,24.90
2020,05,29,16,54,24.90
2020,05,29,16,55,24.80
2020,05,29,16,56,24.80
2020,05,29,16,57,24.70
2020,05,29,16,58,24.60
2020,05,29,16,59,24.50
2020,05,29,17,00,24.40
2020,05,29,17,01,24.40
2020,05,29,17,02,24.30
2020,05,29,17,03,24.30
2020,05,29,17,04,24.30
2020,05,29,17,05,24.40
2020,05,29,17,06,24.40
2020,05,29,17,07,24.50
2020,05,29,17,08,24.60
2020,05,29,17,09,24.60
2020,05,29,17,10,24.60
2020,05,29,17,11,24.70
2020,05,29,17,12,24.60
2020,05,29,17,13,24.70
2020,05,29,17,14,24.70
2020,05,29,17,15,24.70
2020,05,29,17,16,24.80
2020,05,29,17,17,24.80
2020,05,29,17,18,24.80
2020,05,29,17,19,24.80